owner,sensor,date,latitude,longitude,vertical_datum,direction_of_sea_water_velocity,sea_water_speed,upward_sea_water_velocity,qcFlag 
TABS,ioos:station:wmo:42050:1,2002-06-01T00:00:00Z,28.8425,-94.2433,2.0,269.1570568,14.28154403,-99999.0,'11111222,11111222,99999999' 
TABS,ioos:station:wmo:42050:1,2002-06-01T00:30:00Z,28.8425,-94.2433,2.0,277.3170797,13.34869282,-99999.0,'11111222,11111222,99999999' 
TABS,ioos:station:wmo:42050:1,2002-06-01T01:00:00Z,28.8425,-94.2433,2.0,288.8909484,12.72540766,-99999.0,'11111222,11111222,99999999' 
TABS,ioos:station:wmo:42050:1,2002-06-01T01:30:00Z,28.8425,-94.2433,2.0,288.9491008,10.9324334,-99999.0,'11111222,11111222,99999999' 
TABS,ioos:station:wmo:42050:1,2002-06-01T02:00:00Z,28.8425,-94.2433,2.0,280.4041893,8.804754397,-99999.0,'11133222,11111222,99999999' 
TABS,ioos:station:wmo:42050:1,2002-06-01T02:30:00Z,28.8425,-94.2433,2.0,279.2676031,14.96532659,-99999.0,'11111222,11111222,99999999' 
TABS,ioos:station:wmo:42050:1,2002-06-01T03:00:00Z,28.8425,-94.2433,2.0,278.4232338,15.2242077,-99999.0,'11111222,11111222,99999999' 
TABS,ioos:station:wmo:42050:1,2002-06-01T03:30:00Z,28.8425,-94.2433,2.0,286.7180681,14.87887429,-99999.0,'11111222,11111222,99999999' 
TABS,ioos:station:wmo:42050:1,2002-06-01T04:00:00Z,28.8425,-94.2433,2.0,278.8368464,16.40470969,-99999.0,'11111222,11111222,99999999' 
TABS,ioos:station:wmo:42050:1,2002-06-01T04:30:00Z,28.8425,-94.2433,2.0,276.2018173,18.23671571,-99999.0,'11111222,11111222,99999999' 
TABS,ioos:station:wmo:42050:1,2002-06-01T05:00:00Z,28.8425,-94.2433,2.0,279.1338822,18.33243301,-99999.0,'11111222,11111222,99999999' 
TABS,ioos:station:wmo:42050:1,2002-06-01T05:30:00Z,28.8425,-94.2433,2.0,283.2028661,19.83423807,-99999.0,'11111222,11111222,99999999' 
TABS,ioos:station:wmo:42050:1,2002-06-01T06:00:00Z,28.8425,-94.2433,2.0,283.7475717,15.86445713,-99999.0,'11111222,11111222,99999999' 
TABS,ioos:station:wmo:42050:1,2002-06-01T06:30:00Z,28.8425,-94.2433,2.0,298.9569166,15.32594206,-99999.0,'11111222,11111222,99999999' 
TABS,ioos:station:wmo:42050:1,2002-06-01T07:00:00Z,28.8425,-94.2433,2.0,307.2940357,12.70834765,-99999.0,'11111222,11111222,99999999' 
TABS,ioos:station:wmo:42050:1,2002-06-01T07:30:00Z,28.8425,-94.2433,2.0,311.305838,12.61979794,-99999.0,'11111222,11111222,99999999' 
TABS,ioos:station:wmo:42050:1,2002-06-01T08:00:00Z,28.8425,-94.2433,2.0,325.9017945,12.45056224,-99999.0,'11111222,11111222,99999999' 
TABS,ioos:station:wmo:42050:1,2002-06-01T08:30:00Z,28.8425,-94.2433,2.0,319.7118356,15.49557356,-99999.0,'11111222,11111222,99999999' 
TABS,ioos:station:wmo:42050:1,2002-06-01T09:00:00Z,28.8425,-94.2433,2.0,326.4734567,12.65553634,-99999.0,'11111222,11111222,99999999' 
TABS,ioos:station:wmo:42050:1,2002-06-01T09:30:00Z,28.8425,-94.2433,2.0,324.7552094,15.02404073,-99999.0,'11111222,11111222,99999999' 
TABS,ioos:station:wmo:42050:1,2002-06-01T10:00:00Z,28.8425,-94.2433,2.0,319.1715751,10.11012364,-99999.0,'11111222,11111222,99999999' 
TABS,ioos:station:wmo:42050:1,2002-06-01T10:30:00Z,28.8425,-94.2433,2.0,335.2607594,5.615380664,-99999.0,'11133222,11111222,99999999' 
TABS,ioos:station:wmo:42050:1,2002-06-01T11:00:00Z,28.8425,-94.2433,2.0,314.9308665,5.83363523,-99999.0,'11133222,11111222,99999999' 
TABS,ioos:station:wmo:42050:1,2002-06-01T11:30:00Z,28.8425,-94.2433,2.0,340.6137566,10.09221978,-99999.0,'11111222,11111222,99999999' 
TABS,ioos:station:wmo:42050:1,2002-06-01T12:00:00Z,28.8425,-94.2433,2.0,341.0883489,12.15621652,-99999.0,'11111222,11111222,99999999' 
TABS,ioos:station:wmo:42050:1,2002-06-01T12:30:00Z,28.8425,-94.2433,2.0,348.5797486,8.1309901,-99999.0,'11133222,11111222,99999999' 
TABS,ioos:station:wmo:42050:1,2002-06-01T13:00:00Z,28.8425,-94.2433,2.0,338.6403336,8.675943753,-99999.0,'11133222,11111222,99999999' 
TABS,ioos:station:wmo:42050:1,2002-06-01T13:30:00Z,28.8425,-94.2433,2.0,356.1767318,8.09802445,-99999.0,'11133222,11111222,99999999' 
TABS,ioos:station:wmo:42050:1,2002-06-01T14:00:00Z,28.8425,-94.2433,2.0,358.2775524,6.653006839,-99999.0,'11133222,11111222,99999999' 
TABS,ioos:station:wmo:42050:1,2002-06-01T14:30:00Z,28.8425,-94.2433,2.0,22.53860779,4.330773603,-99999.0,'11133222,11111222,99999999' 
TABS,ioos:station:wmo:42050:1,2002-06-01T15:00:00Z,28.8425,-94.2433,2.0,339.9705783,4.204295423,-99999.0,'11133222,11111222,99999999' 
TABS,ioos:station:wmo:42050:1,2002-06-01T15:30:00Z,28.8425,-94.2433,2.0,65.13636157,0.451884941,-99999.0,'11133222,11111222,99999999' 
TABS,ioos:station:wmo:42050:1,2002-06-01T16:00:00Z,28.8425,-94.2433,2.0,282.2318932,1.463215637,-99999.0,'11133222,11111222,99999999' 
TABS,ioos:station:wmo:42050:1,2002-06-01T16:30:00Z,28.8425,-94.2433,2.0,239.0001299,5.494815738,-99999.0,'11133222,11111222,99999999' 
TABS,ioos:station:wmo:42050:1,2002-06-01T17:00:00Z,28.8425,-94.2433,2.0,224.7296786,7.502486255,-99999.0,'11133222,11111222,99999999' 
TABS,ioos:station:wmo:42050:1,2002-06-01T17:30:00Z,28.8425,-94.2433,2.0,220.4708707,11.46263495,-99999.0,'11111222,11111222,99999999' 
TABS,ioos:station:wmo:42050:1,2002-06-01T18:00:00Z,28.8425,-94.2433,2.0,214.1867342,9.912865378,-99999.0,'11133222,11111222,99999999' 
TABS,ioos:station:wmo:42050:1,2002-06-01T18:30:00Z,28.8425,-94.2433,2.0,263.5663085,8.835638064,-99999.0,'11133222,11111222,99999999' 
TABS,ioos:station:wmo:42050:1,2002-06-01T19:00:00Z,28.8425,-94.2433,2.0,231.8016515,11.04496718,-99999.0,'11111222,11111222,99999999' 
TABS,ioos:station:wmo:42050:1,2002-06-01T19:30:00Z,28.8425,-94.2433,2.0,266.618243,13.56361309,-99999.0,'11111222,11111222,99999999' 
TABS,ioos:station:wmo:42050:1,2002-06-01T20:00:00Z,28.8425,-94.2433,2.0,269.8674602,13.01003459,-99999.0,'11111222,11111222,99999999' 
TABS,ioos:station:wmo:42050:1,2002-06-01T20:30:00Z,28.8425,-94.2433,2.0,268.1952241,12.38614145,-99999.0,'11111222,11111222,99999999' 
TABS,ioos:station:wmo:42050:1,2002-06-01T21:00:00Z,28.8425,-94.2433,2.0,272.0458246,13.72874721,-99999.0,'11111222,11111222,99999999' 
TABS,ioos:station:wmo:42050:1,2002-06-01T21:30:00Z,28.8425,-94.2433,2.0,282.4856257,17.11473342,-99999.0,'11111222,11111222,99999999' 
TABS,ioos:station:wmo:42050:1,2002-06-01T22:00:00Z,28.8425,-94.2433,2.0,276.8339377,24.62493452,-99999.0,'11111222,11111222,99999999' 
TABS,ioos:station:wmo:42050:1,2002-06-01T22:30:00Z,28.8425,-94.2433,2.0,280.5221826,24.09514681,-99999.0,'11111222,11111222,99999999' 
TABS,ioos:station:wmo:42050:1,2002-06-01T23:00:00Z,28.8425,-94.2433,2.0,278.6638533,23.70041772,-99999.0,'11111222,11111222,99999999' 
TABS,ioos:station:wmo:42050:1,2002-06-01T23:30:00Z,28.8425,-94.2433,2.0,281.5081247,20.45111244,-99999.0,'11111222,11111222,99999999' 
TABS,ioos:station:wmo:42050:1,2002-06-02T00:00:00Z,28.8425,-94.2433,2.0,287.5378181,14.53561144,-99999.0,'11111222,11111222,99999999' 
TABS,ioos:station:wmo:42050:1,2002-06-02T00:30:00Z,28.8425,-94.2433,2.0,281.5396918,12.24755078,-99999.0,'11111222,11111222,99999999' 
TABS,ioos:station:wmo:42050:1,2002-06-02T01:00:00Z,28.8425,-94.2433,2.0,276.1028016,9.312770801,-99999.0,'11133222,11111222,99999999' 
TABS,ioos:station:wmo:42050:1,2002-06-02T01:30:00Z,28.8425,-94.2433,2.0,298.2000779,7.681783647,-99999.0,'11133222,11111222,99999999' 
TABS,ioos:station:wmo:42050:1,2002-06-02T02:00:00Z,28.8425,-94.2433,2.0,270.3254991,14.10022695,-99999.0,'11111222,11111222,99999999' 
TABS,ioos:station:wmo:42050:1,2002-06-02T02:30:00Z,28.8425,-94.2433,2.0,258.8216904,18.72521829,-99999.0,'11111222,11111222,99999999' 
TABS,ioos:station:wmo:42050:1,2002-06-02T03:00:00Z,28.8425,-94.2433,2.0,251.8876443,14.02492424,-99999.0,'11111222,11111222,99999999' 
TABS,ioos:station:wmo:42050:1,2002-06-02T03:30:00Z,28.8425,-94.2433,2.0,236.7410253,14.7332549,-99999.0,'11111222,11111222,99999999' 
TABS,ioos:station:wmo:42050:1,2002-06-02T04:00:00Z,28.8425,-94.2433,2.0,234.3391064,13.55101841,-99999.0,'11111222,11111222,99999999' 
TABS,ioos:station:wmo:42050:1,2002-06-02T04:30:00Z,28.8425,-94.2433,2.0,241.192995,12.11981848,-99999.0,'11111222,11111222,99999999' 
TABS,ioos:station:wmo:42050:1,2002-06-02T05:00:00Z,28.8425,-94.2433,2.0,231.2855268,9.881118358,-99999.0,'11133222,11111222,99999999' 
TABS,ioos:station:wmo:42050:1,2002-06-02T05:30:00Z,28.8425,-94.2433,2.0,231.2459853,8.578636255,-99999.0,'11133222,11111222,99999999' 
TABS,ioos:station:wmo:42050:1,2002-06-02T06:00:00Z,28.8425,-94.2433,2.0,218.0196727,7.971605861,-99999.0,'11133222,11111222,99999999' 
TABS,ioos:station:wmo:42050:1,2002-06-02T06:30:00Z,28.8425,-94.2433,2.0,218.311351,7.710440973,-99999.0,'11133222,11111222,99999999' 
TABS,ioos:station:wmo:42050:1,2002-06-02T07:00:00Z,28.8425,-94.2433,2.0,257.0359275,9.717679764,-99999.0,'11133222,11111222,99999999' 
TABS,ioos:station:wmo:42050:1,2002-06-02T07:30:00Z,28.8425,-94.2433,2.0,237.6923202,8.850045198,-99999.0,'11133222,11111222,99999999' 
TABS,ioos:station:wmo:42050:1,2002-06-02T08:00:00Z,28.8425,-94.2433,2.0,269.0057023,8.071214283,-99999.0,'11133222,11111222,99999999' 
TABS,ioos:station:wmo:42050:1,2002-06-02T08:30:00Z,28.8425,-94.2433,2.0,256.7379894,4.664386348,-99999.0,'11133222,11111222,99999999' 
TABS,ioos:station:wmo:42050:1,2002-06-02T09:00:00Z,28.8425,-94.2433,2.0,239.2256149,4.143428532,-99999.0,'11133222,11111222,99999999' 
TABS,ioos:station:wmo:42050:1,2002-06-02T09:30:00Z,28.8425,-94.2433,2.0,259.0353914,3.575262228,-99999.0,'11133222,11111222,99999999' 
TABS,ioos:station:wmo:42050:1,2002-06-02T10:00:00Z,28.8425,-94.2433,2.0,248.8632295,2.079927883,-99999.0,'11133222,11111222,99999999' 
TABS,ioos:station:wmo:42050:1,2002-06-02T10:30:00Z,28.8425,-94.2433,2.0,266.542968,1.492715646,-99999.0,'11133222,11111222,99999999' 
TABS,ioos:station:wmo:42050:1,2002-06-02T11:00:00Z,28.8425,-94.2433,2.0,274.1542643,3.589428924,-99999.0,'11133222,11111222,99999999' 
TABS,ioos:station:wmo:42050:1,2002-06-02T11:30:00Z,28.8425,-94.2433,2.0,333.8317247,2.584956479,-99999.0,'11133222,11111222,99999999' 
TABS,ioos:station:wmo:42050:1,2002-06-02T12:00:00Z,28.8425,-94.2433,2.0,296.8715281,5.022280359,-99999.0,'11133222,11111222,99999999' 
TABS,ioos:station:wmo:42050:1,2002-06-02T12:30:00Z,28.8425,-94.2433,2.0,340.1777922,2.742498861,-99999.0,'11133222,11111222,99999999' 
TABS,ioos:station:wmo:42050:1,2002-06-02T13:00:00Z,28.8425,-94.2433,2.0,295.9216658,3.980452236,-99999.0,'11133222,11111222,99999999' 
TABS,ioos:station:wmo:42050:1,2002-06-02T13:30:00Z,28.8425,-94.2433,2.0,57.81328123,2.008706051,-99999.0,'11133222,11111222,99999999' 
TABS,ioos:station:wmo:42050:1,2002-06-02T14:00:00Z,28.8425,-94.2433,2.0,56.82156593,2.485155931,-99999.0,'11133222,11111222,99999999' 
TABS,ioos:station:wmo:42050:1,2002-06-02T14:30:00Z,28.8425,-94.2433,2.0,26.56519952,1.788854382,-99999.0,'11133222,11111222,99999999' 
TABS,ioos:station:wmo:42050:1,2002-06-02T15:00:00Z,28.8425,-94.2433,2.0,181.4055355,1.630490724,-99999.0,'11133222,11111222,99999999' 
TABS,ioos:station:wmo:42050:1,2002-06-02T15:30:00Z,28.8425,-94.2433,2.0,298.3553164,0.715891053,-99999.0,'11133222,11111222,99999999' 
TABS,ioos:station:wmo:42050:1,2002-06-02T16:00:00Z,28.8425,-94.2433,2.0,111.6950587,3.002698786,-99999.0,'11133222,11111222,99999999' 
TABS,ioos:station:wmo:42050:1,2002-06-02T16:30:00Z,28.8425,-94.2433,2.0,161.2955309,4.708683468,-99999.0,'11133222,11111222,99999999' 
TABS,ioos:station:wmo:42050:1,2002-06-02T17:00:00Z,28.8425,-94.2433,2.0,172.4737042,9.39089985,-99999.0,'11133222,11111222,99999999' 
TABS,ioos:station:wmo:42050:1,2002-06-02T17:30:00Z,28.8425,-94.2433,2.0,178.3324997,10.65451078,-99999.0,'11111222,11111222,99999999' 
TABS,ioos:station:wmo:42050:1,2002-06-02T18:00:00Z,28.8425,-94.2433,2.0,187.1800184,15.44109128,-99999.0,'11111222,11111222,99999999' 
TABS,ioos:station:wmo:42050:1,2002-06-02T18:30:00Z,28.8425,-94.2433,2.0,180.2463977,13.94012912,-99999.0,'11111222,11111222,99999999' 
TABS,ioos:station:wmo:42050:1,2002-06-02T19:00:00Z,28.8425,-94.2433,2.0,183.7409097,11.49449433,-99999.0,'11111222,11111222,99999999' 
TABS,ioos:station:wmo:42050:1,2002-06-02T19:30:00Z,28.8425,-94.2433,2.0,196.1302521,13.60563486,-99999.0,'11111222,11111222,99999999' 
TABS,ioos:station:wmo:42050:1,2002-06-02T20:00:00Z,28.8425,-94.2433,2.0,201.3858227,10.50320427,-99999.0,'11111222,11111222,99999999' 
TABS,ioos:station:wmo:42050:1,2002-06-02T20:30:00Z,28.8425,-94.2433,2.0,206.5647786,11.40394669,-99999.0,'11111222,11111222,99999999' 
TABS,ioos:station:wmo:42050:1,2002-06-02T21:00:00Z,28.8425,-94.2433,2.0,213.6033856,9.196939708,-99999.0,'11133222,11111222,99999999' 
TABS,ioos:station:wmo:42050:1,2002-06-02T21:30:00Z,28.8425,-94.2433,2.0,218.0012767,9.923935711,-99999.0,'11133222,11111222,99999999' 
TABS,ioos:station:wmo:42050:1,2002-06-02T22:00:00Z,28.8425,-94.2433,2.0,228.4262342,10.29266243,-99999.0,'11111222,11111222,99999999' 
TABS,ioos:station:wmo:42050:1,2002-06-02T22:30:00Z,28.8425,-94.2433,2.0,239.267935,10.58669448,-99999.0,'11111222,11111222,99999999' 
TABS,ioos:station:wmo:42050:1,2002-06-02T23:00:00Z,28.8425,-94.2433,2.0,241.7051996,12.29950406,-99999.0,'11111222,11111222,99999999' 
TABS,ioos:station:wmo:42050:1,2002-06-02T23:30:00Z,28.8425,-94.2433,2.0,236.8883146,9.061489944,-99999.0,'11133222,11111222,99999999' 
TABS,ioos:station:wmo:42050:1,2002-06-03T00:00:00Z,28.8425,-94.2433,2.0,261.5520716,11.23185648,-99999.0,'11111222,11111222,99999999' 
TABS,ioos:station:wmo:42050:1,2002-06-03T00:30:00Z,28.8425,-94.2433,2.0,241.2449408,7.60818638,-99999.0,'11133222,11111222,99999999' 
TABS,ioos:station:wmo:42050:1,2002-06-03T01:00:00Z,28.8425,-94.2433,2.0,282.9540429,6.290071542,-99999.0,'11133222,11111222,99999999' 
TABS,ioos:station:wmo:42050:1,2002-06-03T01:30:00Z,28.8425,-94.2433,2.0,279.8476325,6.607344398,-99999.0,'11133222,11111222,99999999' 
TABS,ioos:station:wmo:42050:1,2002-06-03T02:00:00Z,28.8425,-94.2433,2.0,272.2819094,5.023982484,-99999.0,'11133222,11111222,99999999' 
TABS,ioos:station:wmo:42050:1,2002-06-03T02:30:00Z,28.8425,-94.2433,2.0,287.9695186,5.056649088,-99999.0,'11133222,11111222,99999999' 
TABS,ioos:station:wmo:42050:1,2002-06-03T03:00:00Z,28.8425,-94.2433,2.0,331.294325,3.830822366,-99999.0,'11133222,11111222,99999999' 
TABS,ioos:station:wmo:42050:1,2002-06-03T03:30:00Z,28.8425,-94.2433,2.0,307.6280204,6.502568723,-99999.0,'11133222,11111222,99999999' 
TABS,ioos:station:wmo:42050:1,2002-06-03T04:00:00Z,28.8425,-94.2433,2.0,314.8890621,7.283213576,-99999.0,'11133222,11111222,99999999' 
TABS,ioos:station:wmo:42050:1,2002-06-03T04:30:00Z,28.8425,-94.2433,2.0,339.2586711,7.228499153,-99999.0,'11133222,11111222,99999999' 
TABS,ioos:station:wmo:42050:1,2002-06-03T05:00:00Z,28.8425,-94.2433,2.0,321.2792532,7.305812754,-99999.0,'11133222,11111222,99999999' 
TABS,ioos:station:wmo:42050:1,2002-06-03T05:30:00Z,28.8425,-94.2433,2.0,332.2860572,6.020705939,-99999.0,'11133222,11111222,99999999' 
TABS,ioos:station:wmo:42050:1,2002-06-03T06:00:00Z,28.8425,-94.2433,2.0,315.3731671,6.519662568,-99999.0,'11133222,11111222,99999999' 
TABS,ioos:station:wmo:42050:1,2002-06-03T06:30:00Z,28.8425,-94.2433,2.0,320.6899617,3.851493217,-99999.0,'11133222,11111222,99999999' 
TABS,ioos:station:wmo:42050:1,2002-06-03T07:00:00Z,28.8425,-94.2433,2.0,336.8016742,4.797937057,-99999.0,'11133222,11111222,99999999' 
TABS,ioos:station:wmo:42050:1,2002-06-03T07:30:00Z,28.8425,-94.2433,2.0,329.4527101,2.833231371,-99999.0,'11133222,11111222,99999999' 
TABS,ioos:station:wmo:42050:1,2002-06-03T08:00:00Z,28.8425,-94.2433,2.0,41.25246902,1.622744589,-99999.0,'11133222,11111222,99999999' 
TABS,ioos:station:wmo:42050:1,2002-06-03T08:30:00Z,28.8425,-94.2433,2.0,26.04493554,3.940114212,-99999.0,'11133222,11111222,99999999' 
TABS,ioos:station:wmo:42050:1,2002-06-03T09:00:00Z,28.8425,-94.2433,2.0,30.70374317,7.931891326,-99999.0,'11133222,11111222,99999999' 
TABS,ioos:station:wmo:42050:1,2002-06-03T09:30:00Z,28.8425,-94.2433,2.0,40.70025246,3.772426275,-99999.0,'11133222,11111222,99999999' 
TABS,ioos:station:wmo:42050:1,2002-06-03T10:00:00Z,28.8425,-94.2433,2.0,54.00534732,9.035053957,-99999.0,'11133222,11111222,99999999' 
TABS,ioos:station:wmo:42050:1,2002-06-03T10:30:00Z,28.8425,-94.2433,2.0,59.33550713,5.254788293,-99999.0,'11133222,11111222,99999999' 
TABS,ioos:station:wmo:42050:1,2002-06-03T11:00:00Z,28.8425,-94.2433,2.0,59.4578382,6.060924022,-99999.0,'11133222,11111222,99999999' 
TABS,ioos:station:wmo:42050:1,2002-06-03T11:30:00Z,28.8425,-94.2433,2.0,72.08359276,13.9778396,-99999.0,'11111222,11111222,99999999' 
TABS,ioos:station:wmo:42050:1,2002-06-03T12:00:00Z,28.8425,-94.2433,2.0,74.93154708,14.80920322,-99999.0,'11111222,11111222,99999999' 
TABS,ioos:station:wmo:42050:1,2002-06-03T12:30:00Z,28.8425,-94.2433,2.0,72.54931779,8.836707532,-99999.0,'11133222,11111222,99999999' 
TABS,ioos:station:wmo:42050:1,2002-06-03T13:00:00Z,28.8425,-94.2433,2.0,97.36018971,9.367182074,-99999.0,'11133222,11111222,99999999' 
TABS,ioos:station:wmo:42050:1,2002-06-03T13:30:00Z,28.8425,-94.2433,2.0,101.3204094,10.69813535,-99999.0,'11111222,11111222,99999999' 
TABS,ioos:station:wmo:42050:1,2002-06-03T14:00:00Z,28.8425,-94.2433,2.0,107.5680501,11.49619502,-99999.0,'11111222,11111222,99999999' 
TABS,ioos:station:wmo:42050:1,2002-06-03T14:30:00Z,28.8425,-94.2433,2.0,124.8706458,12.38353746,-99999.0,'11111222,11111222,99999999' 
TABS,ioos:station:wmo:42050:1,2002-06-03T15:00:00Z,28.8425,-94.2433,2.0,120.170286,18.20632033,-99999.0,'11111222,11111222,99999999' 
TABS,ioos:station:wmo:42050:1,2002-06-03T15:30:00Z,28.8425,-94.2433,2.0,131.8534763,18.16467176,-99999.0,'11111222,11111222,99999999' 
TABS,ioos:station:wmo:42050:1,2002-06-03T16:00:00Z,28.8425,-94.2433,2.0,141.1997688,17.21977061,-99999.0,'11111222,11111222,99999999' 
TABS,ioos:station:wmo:42050:1,2002-06-03T16:30:00Z,28.8425,-94.2433,2.0,139.1673382,11.28698365,-99999.0,'11111222,11111222,99999999' 
TABS,ioos:station:wmo:42050:1,2002-06-03T17:00:00Z,28.8425,-94.2433,2.0,151.2329245,13.7351265,-99999.0,'11111222,11111222,99999999' 
TABS,ioos:station:wmo:42050:1,2002-06-03T17:30:00Z,28.8425,-94.2433,2.0,169.623316,12.15885274,-99999.0,'11111222,11111222,99999999' 
TABS,ioos:station:wmo:42050:1,2002-06-03T18:00:00Z,28.8425,-94.2433,2.0,172.1464946,12.29531618,-99999.0,'11111222,11111222,99999999' 
TABS,ioos:station:wmo:42050:1,2002-06-03T18:30:00Z,28.8425,-94.2433,2.0,163.7155541,9.52200084,-99999.0,'11133222,11111222,99999999' 
TABS,ioos:station:wmo:42050:1,2002-06-03T19:00:00Z,28.8425,-94.2433,2.0,151.9055598,13.90882454,-99999.0,'11111222,11111222,99999999' 
TABS,ioos:station:wmo:42050:1,2002-06-03T19:30:00Z,28.8425,-94.2433,2.0,165.8546708,14.03556198,-99999.0,'11111222,11111222,99999999' 
TABS,ioos:station:wmo:42050:1,2002-06-03T20:00:00Z,28.8425,-94.2433,2.0,179.3888919,13.13074636,-99999.0,'11111222,11111222,99999999' 
TABS,ioos:station:wmo:42050:1,2002-06-03T20:30:00Z,28.8425,-94.2433,2.0,194.4554503,12.25807897,-99999.0,'11111222,11111222,99999999' 
TABS,ioos:station:wmo:42050:1,2002-06-03T21:00:00Z,28.8425,-94.2433,2.0,200.3147028,9.735568807,-99999.0,'11133222,11111222,99999999' 
TABS,ioos:station:wmo:42050:1,2002-06-03T21:30:00Z,28.8425,-94.2433,2.0,226.7703014,9.840553846,-99999.0,'11133222,11111222,99999999' 
TABS,ioos:station:wmo:42050:1,2002-06-03T22:00:00Z,28.8425,-94.2433,2.0,230.2386804,6.58237799,-99999.0,'11133222,11111222,99999999' 
TABS,ioos:station:wmo:42050:1,2002-06-03T22:30:00Z,28.8425,-94.2433,2.0,209.4090523,4.235858827,-99999.0,'11133222,11111222,99999999' 
TABS,ioos:station:wmo:42050:1,2002-06-03T23:00:00Z,28.8425,-94.2433,2.0,258.4947907,5.765847726,-99999.0,'11133222,11111222,99999999' 
TABS,ioos:station:wmo:42050:1,2002-06-03T23:30:00Z,28.8425,-94.2433,2.0,271.4445431,4.761512365,-99999.0,'11133222,11111222,99999999' 
TABS,ioos:station:wmo:42050:1,2002-06-04T00:00:00Z,28.8425,-94.2433,2.0,289.9180841,5.988196724,-99999.0,'11133222,11111222,99999999' 
TABS,ioos:station:wmo:42050:1,2002-06-04T00:30:00Z,28.8425,-94.2433,2.0,302.792315,8.4935034,-99999.0,'11133222,11111222,99999999' 
TABS,ioos:station:wmo:42050:1,2002-06-04T01:00:00Z,28.8425,-94.2433,2.0,304.5855813,6.923503448,-99999.0,'11133222,11111222,99999999' 
TABS,ioos:station:wmo:42050:1,2002-06-04T01:30:00Z,28.8425,-94.2433,2.0,306.46957,4.576111887,-99999.0,'11133222,11111222,99999999' 
TABS,ioos:station:wmo:42050:1,2002-06-04T02:00:00Z,28.8425,-94.2433,2.0,337.9198169,9.151174788,-99999.0,'11133222,11111222,99999999' 
TABS,ioos:station:wmo:42050:1,2002-06-04T02:30:00Z,28.8425,-94.2433,2.0,328.095558,10.86075504,-99999.0,'11111222,11111222,99999999' 
TABS,ioos:station:wmo:42050:1,2002-06-04T03:00:00Z,28.8425,-94.2433,2.0,332.2131662,10.27483333,-99999.0,'11111222,11111222,99999999' 
TABS,ioos:station:wmo:42050:1,2002-06-04T03:30:00Z,28.8425,-94.2433,2.0,322.6662084,8.64028356,-99999.0,'11133222,11111222,99999999' 
TABS,ioos:station:wmo:42050:1,2002-06-04T04:00:00Z,28.8425,-94.2433,2.0,343.3053968,12.49675958,-99999.0,'11111222,11111222,99999999' 
TABS,ioos:station:wmo:42050:1,2002-06-04T04:30:00Z,28.8425,-94.2433,2.0,354.3880204,12.16832774,-99999.0,'11111222,11111222,99999999' 
TABS,ioos:station:wmo:42050:1,2002-06-04T05:00:00Z,28.8425,-94.2433,2.0,15.53151003,12.73503043,-99999.0,'11111222,11111222,99999999' 
TABS,ioos:station:wmo:42050:1,2002-06-04T05:30:00Z,28.8425,-94.2433,2.0,40.96403599,11.6537376,-99999.0,'11111222,11111222,99999999' 
TABS,ioos:station:wmo:42050:1,2002-06-04T06:00:00Z,28.8425,-94.2433,2.0,36.12339457,12.7390816,-99999.0,'11111222,11111222,99999999' 
TABS,ioos:station:wmo:42050:1,2002-06-04T06:30:00Z,28.8425,-94.2433,2.0,43.39165303,12.34387702,-99999.0,'11111222,11111222,99999999' 
TABS,ioos:station:wmo:42050:1,2002-06-04T07:00:00Z,28.8425,-94.2433,2.0,43.04621411,13.27304035,-99999.0,'11111222,11111222,99999999' 
TABS,ioos:station:wmo:42050:1,2002-06-04T07:30:00Z,28.8425,-94.2433,2.0,46.9714121,15.4169809,-99999.0,'11111222,11111222,99999999' 
TABS,ioos:station:wmo:42050:1,2002-06-04T08:00:00Z,28.8425,-94.2433,2.0,51.56168675,12.93284578,-99999.0,'11111222,11111222,99999999' 
TABS,ioos:station:wmo:42050:1,2002-06-04T08:30:00Z,28.8425,-94.2433,2.0,67.63815849,11.95935199,-99999.0,'11111222,11111222,99999999' 
TABS,ioos:station:wmo:42050:1,2002-06-04T09:00:00Z,28.8425,-94.2433,2.0,67.79369874,11.29798655,-99999.0,'11111222,11111222,99999999' 
TABS,ioos:station:wmo:42050:1,2002-06-04T09:30:00Z,28.8425,-94.2433,2.0,67.60389837,15.56396479,-99999.0,'11111222,11111222,99999999' 
TABS,ioos:station:wmo:42050:1,2002-06-04T10:00:00Z,28.8425,-94.2433,2.0,70.62846418,16.24995385,-99999.0,'11111222,11111222,99999999' 
TABS,ioos:station:wmo:42050:1,2002-06-04T10:30:00Z,28.8425,-94.2433,2.0,54.72766103,2.510975906,-99999.0,'11133222,11111222,99999999' 
TABS,ioos:station:wmo:42050:1,2002-06-04T11:00:00Z,28.8425,-94.2433,2.0,82.35414516,8.868849982,-99999.0,'11133222,11111222,99999999' 
TABS,ioos:station:wmo:42050:1,2002-06-04T11:30:00Z,28.8425,-94.2433,2.0,84.868705,16.43586931,-99999.0,'11111222,11111222,99999999' 
TABS,ioos:station:wmo:42050:1,2002-06-04T12:00:00Z,28.8425,-94.2433,2.0,86.04285308,18.11318304,-99999.0,'11111222,11111222,99999999' 
TABS,ioos:station:wmo:42050:1,2002-06-04T12:30:00Z,28.8425,-94.2433,2.0,85.18070824,18.80648824,-99999.0,'11111222,11111222,99999999' 
TABS,ioos:station:wmo:42050:1,2002-06-04T13:00:00Z,28.8425,-94.2433,2.0,87.3903078,18.22890562,-99999.0,'11111222,11111222,99999999' 
TABS,ioos:station:wmo:42050:1,2002-06-04T13:30:00Z,28.8425,-94.2433,2.0,82.13065171,15.8492555,-99999.0,'11111222,11111222,99999999' 
TABS,ioos:station:wmo:42050:1,2002-06-04T14:00:00Z,28.8425,-94.2433,2.0,83.11393741,15.76371149,-99999.0,'11111222,11111222,99999999' 
TABS,ioos:station:wmo:42050:1,2002-06-04T14:30:00Z,28.8425,-94.2433,2.0,88.21102473,19.21936784,-99999.0,'11111222,11111222,99999999' 
TABS,ioos:station:wmo:42050:1,2002-06-04T15:00:00Z,28.8425,-94.2433,2.0,81.33529162,18.18757818,-99999.0,'11111222,11111222,99999999' 
TABS,ioos:station:wmo:42050:1,2002-06-04T15:30:00Z,28.8425,-94.2433,2.0,85.60640558,17.23063551,-99999.0,'11111222,11111222,99999999' 
TABS,ioos:station:wmo:42050:1,2002-06-04T16:00:00Z,28.8425,-94.2433,2.0,89.52868398,19.45065809,-99999.0,'11111222,11111222,99999999' 